Year,Month,Day,Hour,Minute,Value (Times are PST for temperature in C)
2018,08,16,13,17,15.20
2018,08,16,13,18,15.20
2018,08,16,13,19,15.30
2018,08,16,13,20,15.30
2018,08,16,13,21,15.30
2018,08,16,13,22,15.30
2018,08,16,13,23,15.30
2018,08,16,13,24,15.40
2018,08,16,13,25,15.40
2018,08,16,13,26,15.40
2018,08,16,13,27,15.50
2018,08,16,13,28,15.50
2018,08,16,13,29,15.50
2018,08,16,13,30,15.60
2018,08,16,13,31,15.60
2018,08,16,13,32,15.70
2018,08,16,13,33,15.70
2018,08,16,13,34,15.70
2018,08,16,13,35,15.70
2018,08,16,13,36,15.70
2018,08,16,13,37,15.70
2018,08,16,13,38,15.70
2018,08,16,13,39,15.70
2018,08,16,13,40,15.70
2018,08,16,13,41,15.80
2018,08,16,13,42,15.80
2018,08,16,13,43,15.80
2018,08,16,13,44,15.80
2018,08,16,13,45,15.80
2018,08,16,13,46,15.80
2018,08,16,13,47,15.80
2018,08,16,13,48,15.80
2018,08,16,13,49,15.80
2018,08,16,13,50,15.80
2018,08,16,13,51,15.80
2018,08,16,13,52,15.80
2018,08,16,13,53,15.80
2018,08,16,13,54,15.80
2018,08,16,13,55,15.80
2018,08,16,13,56,15.80
2018,08,16,13,57,15.80
2018,08,16,13,58,15.80
2018,08,16,13,59,15.80
2018,08,16,14,00,15.80
2018,08,16,14,01,15.80
2018,08,16,14,02,15.80
2018,08,16,14,03,15.80
2018,08,16,14,04,15.80
2018,08,16,14,05,15.80
2018,08,16,14,06,15.90
2018,08,16,14,07,15.90
2018,08,16,14,08,15.90
2018,08,16,14,09,16.00
2018,08,16,14,10,16.10
2018,08,16,14,11,16.10
2018,08,16,14,12,16.00
2018,08,16,14,13,16.00
2018,08,16,14,14,16.00
2018,08,16,14,15,16.00
2018,08,16,14,16,15.90
2018,08,16,14,17,15.90
2018,08,16,14,18,15.90
2018,08,16,14,19,15.90
2018,08,16,14,20,16.00
2018,08,16,14,21,16.00
2018,08,16,14,22,15.90
2018,08,16,14,23,15.80
2018,08,16,14,24,15.80
2018,08,16,14,25,15.70
2018,08,16,14,26,15.70
2018,08,16,14,27,15.70
2018,08,16,14,28,15.70
2018,08,16,14,29,15.70
2018,08,16,14,30,15.70
2018,08,16,14,31,15.70
2018,08,16,14,32,15.80
2018,08,16,14,33,15.80
2018,08,16,14,34,15.80
2018,08,16,14,35,15.80
2018,08,16,14,36,15.80
2018,08,16,14,37,15.70
2018,08,16,14,38,15.80
2018,08,16,14,39,15.80
2018,08,16,14,40,15.80
2018,08,16,14,41,15.80
2018,08,16,14,42,15.70
2018,08,16,14,43,15.70
2018,08,16,14,44,15.70
2018,08,16,14,45,15.70
2018,08,16,14,46,15.70
2018,08,16,14,47,15.70
2018,08,16,14,48,15.70
2018,08,16,14,49,15.60
2018,08,16,14,50,15.50
2018,08,16,14,51,15.50
2018,08,16,14,52,15.50
2018,08,16,14,53,15.40
2018,08,16,14,54,15.40
2018,08,16,14,55,15.40
2018,08,16,14,56,15.50
2018,08,16,14,57,15.40
2018,08,16,14,58,15.50
2018,08,16,14,59,15.50
2018,08,16,15,00,15.50
2018,08,16,15,01,15.50
2018,08,16,15,02,15.50
2018,08,16,15,03,15.60
2018,08,16,15,04,15.60
2018,08,16,15,05,15.60
2018,08,16,15,06,15.70
2018,08,16,15,07,15.70
2018,08,16,15,08,15.60
2018,08,16,15,09,15.70
2018,08,16,15,10,15.70
2018,08,16,15,11,15.70
2018,08,16,15,12,15.60
2018,08,16,15,13,15.60
2018,08,16,15,14,15.60
2018,08,16,15,15,15.50
2018,08,16,15,16,15.50
2018,08,16,15,17,15.40
2018,08,16,15,18,15.30
2018,08,16,15,19,15.40
2018,08,16,15,20,15.40
2018,08,16,15,21,15.40
2018,08,16,15,22,15.40
2018,08,16,15,23,15.40
2018,08,16,15,24,15.30
2018,08,16,15,25,15.30
2018,08,16,15,26,15.30
2018,08,16,15,27,15.30
2018,08,16,15,28,15.20
2018,08,16,15,29,15.30
2018,08,16,15,30,15.30
2018,08,16,15,31,15.30
2018,08,16,15,32,15.30
2018,08,16,15,33,15.40
2018,08,16,15,34,15.40
2018,08,16,15,35,15.40
2018,08,16,15,36,15.40
2018,08,16,15,37,15.50
2018,08,16,15,38,15.50
2018,08,16,15,39,15.40
2018,08,16,15,40,15.40
2018,08,16,15,41,15.40
2018,08,16,15,42,15.50
2018,08,16,15,43,15.50
2018,08,16,15,44,15.60
2018,08,16,15,45,15.60
2018,08,16,15,46,15.50
2018,08,16,15,47,15.50
2018,08,16,15,48,15.40
2018,08,16,15,49,15.30
2018,08,16,15,50,15.30
2018,08,16,15,51,15.20
2018,08,16,15,52,15.20
2018,08,16,15,53,15.20
2018,08,16,15,54,15.20
2018,08,16,15,55,15.20
2018,08,16,15,56,15.30
2018,08,16,15,57,15.30
2018,08,16,15,58,15.30
2018,08,16,15,59,15.40
2018,08,16,16,00,15.40
2018,08,16,16,01,15.50
2018,08,16,16,02,15.60
2018,08,16,16,03,15.60
2018,08,16,16,04,15.60
2018,08,16,16,05,15.50
2018,08,16,16,06,15.50
2018,08,16,16,07,15.60
2018,08,16,16,08,15.60
2018,08,16,16,09,15.50
2018,08,16,16,10,15.40
2018,08,16,16,11,15.40
2018,08,16,16,12,15.30
2018,08,16,16,13,15.30
2018,08,16,16,14,15.30
2018,08,16,16,15,15.30
2018,08,16,16,16,15.30
2018,08,16,16,17,15.20
2018,08,16,16,18,15.20
2018,08,16,16,19,15.20
2018,08,16,16,20,15.10
2018,08,16,16,21,15.00
2018,08,16,16,22,14.90
2018,08,16,16,23,14.90
2018,08,16,16,24,14.90
2018,08,16,16,25,14.90
2018,08,16,16,26,14.90
2018,08,16,16,27,14.90
2018,08,16,16,28,14.90
2018,08,16,16,29,14.90
2018,08,16,16,30,14.90
2018,08,16,16,31,14.90
2018,08,16,16,32,14.90
2018,08,16,16,33,14.90
2018,08,16,16,34,14.90
2018,08,16,16,35,14.90
2018,08,16,16,36,14.80
2018,08,16,16,37,14.80
2018,08,16,16,38,14.80
2018,08,16,16,39,14.80
2018,08,16,16,40,14.80
2018,08,16,16,41,14.80
2018,08,16,16,42,14.80
2018,08,16,16,43,14.70
2018,08,16,16,44,14.80
2018,08,16,16,45,14.70
2018,08,16,16,46,14.60
2018,08,16,16,47,14.60
2018,08,16,16,48,14.50
2018,08,16,16,49,14.40
2018,08,16,16,50,14.40
2018,08,16,16,51,14.30
2018,08,16,16,52,14.30
2018,08,16,16,53,14.20
2018,08,16,16,54,14.20
2018,08,16,16,55,14.20
2018,08,16,16,56,14.20
2018,08,16,16,57,14.30
2018,08,16,16,58,14.30
2018,08,16,16,59,14.30
2018,08,16,17,00,14.30
2018,08,16,17,01,14.30
2018,08,16,17,02,14.30
2018,08,16,17,03,14.30
2018,08,16,17,04,14.30
2018,08,16,17,05,14.20
2018,08,16,17,06,14.20
2018,08,16,17,07,14.20
2018,08,16,17,08,14.20
2018,08,16,17,09,14.20
2018,08,16,17,10,14.20
2018,08,16,17,11,14.20
2018,08,16,17,12,14.20
2018,08,16,17,13,14.20
2018,08,16,17,14,14.20
2018,08,16,17,15,14.20
2018,08,16,17,16,14.20
2018,08,16,17,17,14.20
2018,08,16,17,18,14.20
2018,08,16,17,19,14.20
2018,08,16,17,20,14.20
2018,08,16,17,21,14.10
2018,08,16,17,22,14.10
2018,08,16,17,23,14.10
2018,08,16,17,24,14.10
2018,08,16,17,25,14.10
2018,08,16,17,26,14.10
2018,08,16,17,27,14.10
2018,08,16,17,28,14.10
2018,08,16,17,29,14.10
2018,08,16,17,30,14.10
2018,08,16,17,31,14.10
2018,08,16,17,32,14.10
2018,08,16,17,33,14.10
2018,08,16,17,34,14.20
2018,08,16,17,35,14.20
2018,08,16,17,36,14.20
2018,08,16,17,37,14.20
2018,08,16,17,38,14.30
2018,08,16,17,39,14.30
2018,08,16,17,40,14.20
2018,08,16,17,41,14.20
2018,08,16,17,42,14.20
2018,08,16,17,43,14.10
2018,08,16,17,44,14.10
2018,08,16,17,45,14.10
2018,08,16,17,46,14.10
2018,08,16,17,47,14.10
2018,08,16,17,48,14.10
2018,08,16,17,49,14.10
2018,08,16,17,50,14.10
2018,08,16,17,51,14.00
2018,08,16,17,52,14.00
2018,08,16,17,53,14.00
2018,08,16,17,54,14.00
2018,08,16,17,55,14.00
2018,08,16,17,56,14.00
2018,08,16,17,57,14.00
2018,08,16,17,58,14.00
2018,08,16,17,59,14.00
2018,08,16,18,00,14.00
2018,08,16,18,01,13.90
2018,08,16,18,02,13.90
2018,08,16,18,03,13.90
2018,08,16,18,04,13.90
2018,08,16,18,05,13.80
2018,08,16,18,06,13.80
2018,08,16,18,07,13.80
2018,08,16,18,08,13.80
2018,08,16,18,09,13.80
2018,08,16,18,10,13.80
2018,08,16,18,11,13.80
2018,08,16,18,12,13.90
2018,08,16,18,13,13.90
2018,08,16,18,14,13.90
2018,08,16,18,15,13.90
2018,08,16,18,16,13.90
2018,08,16,18,17,13.90
2018,08,16,18,18,13.90
2018,08,16,18,19,13.80
2018,08,16,18,20,13.80
2018,08,16,18,21,13.80
2018,08,16,18,22,13.80
2018,08,16,18,23,13.80
2018,08,16,18,24,13.70
2018,08,16,18,25,13.70
2018,08,16,18,26,13.70
2018,08,16,18,27,13.70
2018,08,16,18,28,13.70
2018,08,16,18,29,13.70
2018,08,16,18,30,13.70
2018,08,16,18,31,13.70
2018,08,16,18,32,13.70
2018,08,16,18,33,13.70
2018,08,16,18,34,13.70
2018,08,16,18,35,13.70
2018,08,16,18,36,13.70
2018,08,16,18,37,13.70
2018,08,16,18,38,13.70
2018,08,16,18,39,13.70
2018,08,16,18,40,13.70
2018,08,16,18,41,13.70
2018,08,16,18,42,13.70
